Orbital Elements at Epoch 2459200.5 (2020-Dec-17.0) TDB
Reference: JPL 28 (heliocentric ecliptic J2000)
Element | Value | Uncertainty (1-sigma) | Units |
e | .09008527912739853 | 4.5992e-08 | |
a | 2.646011941206393 | 1.2104e-08 | au |
q | 2.407645216908386 | 1.1871e-07 | au |
i | 15.87992339394268 | 4.4011e-06 | deg |
node | 57.654792491733 | 1.4665e-05 | deg |
peri | 15.09635047060505 | 3.9535e-05 | deg |
M | 133.0178605015072 | 3.327e-05 | deg |
tp | 2458619.610422880186 (2019-May-16.11042288) | 0.00014571 | TDB |
period | 1572.121570552277 4.30 | 1.0788e-05 2.954e-08 | d yr |
n | .2289899246618276 | 1.5713e-09 | deg/d |
Q | 2.884378665504401 | 1.3195e-08 | au |
|
| | Orbit Determination Parameters
Additional Information
|